This is the latest recevied weather packets stored in our database for station/object N9BLE. If no packets are shown the sender has not sent any weather packets the latest 10 day(s).
| Time | Temp. | Humidity | Pressure | Rain* | Wind** | Luminosity | Snow |
|---|---|---|---|---|---|---|---|
| 1777666011 | 8.89° C | 54% | 1021.1 hPa | 0 mm | - | 77 W/m² | - |
| 1777665709 | 8.89° C | 57% | 1021.2 hPa | 0 mm | - | 94 W/m² | - |
| 1777665406 | 8.89° C | 57% | 1021.2 hPa | 0 mm | - | 91 W/m² | - |
| 1777665101 | 8.89° C | 56% | 1021.2 hPa | 0 mm | - | 82 W/m² | - |
| 1777664797 | 8.89° C | 56% | 1021.1 hPa | 0 mm | - | 79 W/m² | - |
| 1777664493 | 8.89° C | 54% | 1021 hPa | 0 mm | - | 94 W/m² | - |
| 1777664190 | 8.89° C | 55% | 1020.8 hPa | 0 mm | - | 100 W/m² | - |
| 1777663889 | 8.89° C | 52% | 1020.9 hPa | 0 mm | - | 100 W/m² | - |
| 1777663586 | 8.89° C | 55% | 1021 hPa | 0 mm | - | 98 W/m² | - |
| 1777663283 | 8.89° C | 53% | 1021.1 hPa | 0 mm | - | 101 W/m² | - |
| 1777662980 | 8.89° C | 53% | 1020.9 hPa | 0 mm | - | 110 W/m² | - |
| 1777662677 | 8.89° C | 53% | 1020.8 hPa | 0 mm | - | 136 W/m² | - |
| 1777662374 | 8.89° C | 55% | 1020.9 hPa | 0 mm | - | 149 W/m² | - |
| 1777662069 | 8.89° C | 53% | 1020.9 hPa | 0 mm | - | 142 W/m² | - |
| 1777661765 | 9.44° C | 51% | 1021.1 hPa | 0 mm | - | 135 W/m² | - |
| 1777661461 | 9.44° C | 54% | 1020.8 hPa | 0 mm | - | 186 W/m² | - |
| 1777661157 | 9.44° C | 55% | 1020.7 hPa | 0 mm | - | 229 W/m² | - |
| 1777660852 | 9.44° C | 54% | 1020.9 hPa | 0 mm | - | 228 W/m² | - |
| 1777660549 | 9.44° C | 54% | 1020.8 hPa | 0 mm | - | 175 W/m² | - |
| 1777660246 | 9.44° C | 52% | 1020.7 hPa | 0 mm | - | 176 W/m² | - |
| 1777659942 | 10° C | 50% | 1020.6 hPa | 0 mm | - | 192 W/m² | - |
| 1777659639 | 10° C | 53% | 1020.3 hPa | 0 mm | - | 249 W/m² | - |
| 1777659337 | 10° C | 53% | 1020.5 hPa | 0 mm | - | 231 W/m² | - |
| 1777659033 | 10.56° C | 49% | 1020.4 hPa | 0 mm | - | 306 W/m² | - |
| 1777658731 | 10° C | 55% | 1020.5 hPa | 0 mm | - | 369 W/m² | - |
* Rain latest hour (hover to see other rain measurements)
** Current wind speed in m/s (hover to see current wind gust speed)